Wind_Speed
28 29 32 32 30 30 32 31 31 31 31 33 34 35 35 33 31 29 27 26 24 23 22 22 21 21 21 21 20 20 19 19 19 20 23 22 19 16 12 13 14 12 15 16 15 14 12 12 13 13 13 11 9 10 10 6 6 5 3 3 1 2 3 5 7 7 4 1 5 10 14 11 4 8 7 5 6 6 8 12 9 10 11 8 5 4 11 18
29 28 29 29 29 30 31 31 30 30 29 31 32 34 34 33 32 29 28 26 25 23 22 22 21 22 21 21 20 19 19 18 19 22 24 20 17 17 14 14 15 13 15 16 15 14 13 14 15 15 14 11 8 10 9 6 6 3 3 3 2 5 4 5 8 9 4 2 7 11 12 12 6 8 10 4 4 5 6 9 10 11 13 12 8 6 10 16
29 28 30 30 29 31 31 31 30 28 29 30 31 33 33 33 32 30 28 26 25 24 23 23 22 22 22 21 20 18 18 17 19 24 22 19 17 17 15 15 15 14 15 14 14 13 12 14 15 16 15 11 8 10 8 4 4 2 3 2 4 6 3 4 7 8 4 1 8 12 11 11 6 8 10 5 3 4 6 9 11 13 14 14 12 9 10 16
29 29 32 31 30 31 31 30 29 27 27 29 31 32 33 32 32 30 28 26 25 25 24 24 24 23 22 21 19 18 16 11 16 24 20 18 18 17 16 16 16 15 14 13 13 13 12 14 16 16 14 8 7 10 7 4 4 2 4 3 4 4 2 3 5 4 4 2 8 12 10 8 7 9 10 7 3 3 10 14 15 14 12 12 14 12 11 15
29 29 32 32 31 30 30 30 27 25 26 29 31 32 33 32 31 30 27 25 24 25 25 25 25 24 22 20 19 16 12 4 10 20 18 18 19 17 16 16 17 15 13 14 15 15 14 16 17 15 10 6 7 8 5 5 6 3 2 2 2 4 2 2 4 4 5 5 9 13 9 8 8 9 11 10 6 4 8 12 14 15 12 11 13 13 12 15
31 30 31 32 31 29 29 29 26 25 27 29 31 32 33 31 30 28 26 25 25 27 26 26 24 23 21 20 18 16 14 3 3 12 17 19 18 17 17 16 17 16 14 15 17 16 16 18 17 14 9 4 5 5 5 8 6 3 1 1 4 3 2 3 4 4 6 8 11 13 9 9 10 6 9 14 14 10 4 4 6 12 14 13 12 14 13 15
32 30 30 30 31 29 27 28 25 26 28 31 32 32 31 30 29 28 27 28 28 28 27 26 24 22 21 19 18 16 18 10 4 7 17 18 18 17 17 16 16 16 16 18 19 18 18 20 18 15 10 4 4 5 7 10 6 4 1 2 6 3 2 2 3 5 6 8 10 11 9 7 9 6 5 14 21 17 10 6 2 5 11 15 14 14 14 13
33 32 30 29 30 29 27 26 25 27 29 31 32 31 31 30 30 29 30 30 29 28 26 26 23 23 21 19 19 15 19 17 3 4 16 17 17 18 18 17 16 17 18 19 18 19 19 20 19 15 7 3 7 7 9 9 3 3 3 4 7 3 3 4 3 6 6 7 10 10 8 5 8 6 5 14 18 16 16 15 11 7 7 13 16 15 14 14
34 32 30 28 30 29 28 26 25 28 29 30 30 30 31 31 31 31 31 30 29 27 26 25 23 22 20 19 18 11 15 19 6 3 14 18 17 19 19 18 17 18 19 18 17 18 17 19 20 14 6 6 10 9 11 9 1 4 6 7 8 4 4 5 5 7 6 8 10 8 4 2 5 4 8 15 16 15 17 17 17 16 11 11 15 17 15 15
33 31 28 28 30 29 29 27 25 27 28 28 29 30 30 31 31 31 31 30 28 27 25 24 22 21 20 20 17 8 12 19 10 5 12 18 18 19 19 17 17 18 19 18 18 17 15 17 18 13 9 10 11 8 10 7 2 8 11 11 8 6 5 4 5 8 7 8 8 7 3 2 4 2 6 8 8 10 16 17 16 18 16 13 13 17 17 16
32 29 26 27 28 28 29 28 25 27 27 27 29 29 30 31 31 30 30 29 27 26 24 22 22 21 20 20 16 9 11 15 11 8 13 19 18 17 18 16 16 18 19 18 18 17 13 14 18 13 6 9 11 7 7 5 4 11 15 10 6 5 6 4 5 7 6 5 4 5 3 1 3 3 6 7 5 5 9 15 16 16 17 15 13 16 19 18
31 28 25 25 26 26 27 28 27 28 28 28 29 30 31 31 30 30 29 27 26 24 23 21 21 20 19 19 17 13 9 11 11 9 14 19 17 16 16 16 16 16 17 17 18 17 12 13 19 11 6 12 10 5 6 8 10 11 10 5 5 5 4 4 3 2 2 2 4 5 1 2 3 7 8 7 9 7 6 10 14 15 15 15 14 15 19 20
30 28 25 25 26 25 26 27 28 29 29 29 30 30 31 30 29 28 27 25 23 22 21 20 19 20 19 15 15 16 9 8 11 9 14 19 16 15 15 16 16 15 15 15 16 17 13 12 16 11 12 15 7 6 10 10 11 8 5 4 2 5 3 4 4 1 2 2 4 5 2 5 7 10 9 7 8 8 8 9 12 14 15 16 16 15 17 19
29 28 26 26 26 26 26 27 29 28 29 29 29 30 29 28 27 26 24 22 21 21 19 19 19 19 18 12 11 17 12 8 10 10 14 19 17 16 15 15 15 15 14 14 14 16 13 11 13 12 12 12 11 13 9 6 7 4 3 2 2 2 4 5 4 1 3 2 3 5 2 6 7 7 6 10 11 9 10 10 11 14 15 17 18 18 18 18
29 27 26 26 26 26 26 28 28 28 30 29 29 29 27 25 24 23 22 20 20 19 18 19 19 18 16 9 7 14 16 11 10 11 15 18 17 16 15 15 15 14 14 14 14 14 14 13 12 11 11 13 17 12 4 4 4 3 2 0 2 3 5 6 4 3 2 2 2 5 2 6 8 6 3 6 10 10 12 11 11 13 14 16 18 20 20 20
27 27 27 27 26 26 26 27 28 29 30 29 28 27 24 23 22 21 20 19 19 18 18 19 20 18 11 7 8 12 16 15 11 12 16 17 16 15 15 15 14 15 15 15 14 14 15 14 12 12 11 12 11 6 4 4 3 4 2 3 2 3 3 4 2 3 2 1 0 2 2 3 3 4 3 3 3 4 7 9 9 12 14 17 19 20 21 22
25 27 27 26 26 26 27 27 29 30 29 28 27 24 22 20 19 20 19 18 18 18 18 17 19 16 6 7 10 11 16 17 13 14 17 18 16 15 16 16 15 16 17 16 14 14 15 12 11 9 6 5 3 5 6 1 3 2 2 3 2 3 3 2 2 3 4 2 2 2 2 6 5 6 6 5 5 7 9 10 10 11 14 15 18 20 21 22
24 26 26 26 26 26 28 28 29 29 28 27 25 22 21 19 19 18 18 19 19 17 15 15 17 10 6 11 12 11 17 18 15 16 18 18 16 15 16 16 15 17 18 15 12 12 10 7 7 5 3 4 2 5 5 4 5 5 3 3 2 2 3 3 3 2 3 2 3 1 3 9 10 12 15 14 11 14 16 15 14 14 14 13 15 18 20 22
24 25 26 26 26 26 27 28 29 28 28 27 25 24 22 20 19 17 19 22 20 13 7 15 20 6 2 14 15 12 16 18 16 17 19 19 17 16 15 15 17 18 16 10 5 7 7 5 5 4 3 4 6 5 7 7 7 9 6 5 5 3 4 5 4 4 1 2 3 5 5 8 9 10 17 19 13 13 17 18 18 18 17 17 17 18 19 21
23 24 26 27 26 27 26 27 27 27 28 28 30 29 23 22 15 10 20 24 19 8 1 16 24 4 2 14 19 15 16 18 17 19 20 19 20 18 16 17 16 12 9 5 3 3 5 4 3 5 7 8 7 6 6 5 7 8 6 4 4 4 3 3 3 5 1 2 3 4 4 8 10 9 16 22 14 12 19 21 22 21 19 20 20 21 21 22
23 23 25 27 27 27 26 27 26 27 29 29 35 30 23 25 14 10 22 16 11 7 1 16 24 4 2 16 22 19 17 16 16 20 19 19 22 17 14 14 10 4 1 3 5 3 4 5 6 6 6 7 6 7 8 6 7 6 6 5 2 3 3 2 2 3 2 2 2 2 3 9 10 10 16 19 10 12 20 20 22 22 20 21 22 23 24 24
22 22 24 25 26 26 26 27 26 28 29 31 37 28 23 31 17 18 27 11 7 7 1 18 23 4 5 16 20 20 16 11 12 20 20 20 22 15 11 9 6 3 1 4 7 3 3 3 6 6 7 9 6 5 8 7 7 5 4 5 2 2 2 2 2 3 3 1 3 4 4 8 10 9 14 18 14 17 21 20 22 23 23 24 24 25 25 25
21 22 23 23 25 25 25 27 27 31 32 34 37 24 22 29 13 18 26 10 7 7 1 17 21 7 8 15 17 16 12 8 10 19 20 21 20 13 12 8 5 5 2 4 6 5 4 5 5 9 11 10 6 4 8 8 5 4 4 5 2 2 2 2 2 3 3 2 1 2 3 7 7 6 10 14 14 18 19 19 21 22 25 27 27 28 28 28
21 22 22 22 24 25 25 27 29 34 34 34 34 21 21 26 14 19 21 7 4 4 2 14 18 12 9 11 15 12 8 8 11 19 21 20 18 12 11 8 6 6 3 5 7 7 4 4 3 10 8 9 7 4 6 7 2 1 3 6 3 4 4 3 1 0 2 3 2 2 4 6 4 5 7 6 6 10 11 12 14 14 17 20 22 22 22 23
21 21 20 21 23 25 26 27 30 35 34 34 32 21 22 24 18 22 16 6 2 2 2 9 11 12 9 8 14 12 7 7 10 19 21 19 18 11 7 7 6 4 4 6 7 5 3 1 7 10 5 7 9 4 5 7 3 1 3 6 6 7 6 2 2 3 3 3 3 3 3 5 4 4 6 4 6 8 8 8 10 8 7 10 13 14 15 17
22 20 19 20 22 25 27 25 30 36 34 34 30 21 23 24 21 22 12 5 1 2 3 8 6 10 12 9 13 13 6 4 9 20 22 18 17 12 7 5 3 2 5 6 5 2 1 2 5 7 6 7 7 5 6 6 6 2 4 5 7 8 8 7 5 4 2 1 2 3 2 4 6 5 6 5 7 10 9 8 8 7 6 6 8 11 13 14
22 20 19 19 20 26 28 25 31 37 33 32 29 22 24 25 22 19 8 6 2 4 6 7 6 10 12 11 16 12 4 5 10 16 20 18 15 12 8 4 3 3 5 5 3 1 3 4 4 6 6 6 6 5 6 7 8 3 3 6 9 8 8 7 6 4 2 2 2 3 3 1 5 6 6 5 6 9 8 7 8 10 9 7 7 6 7 8
22 20 19 18 19 26 28 25 33 39 32 30 28 23 24 26 21 14 6 3 3 5 6 6 7 10 12 15 16 8 6 10 9 9 17 17 13 8 5 5 6 5 3 5 5 2 3 5 6 7 6 4 5 4 5 9 6 3 3 6 7 7 7 6 6 4 1 1 2 4 3 1 5 6 5 5 5 8 8 7 8 9 10 11 11 9 6 1
24 21 18 17 17 24 26 23 31 35 29 29 28 23 25 25 18 9 4 2 3 4 5 8 9 10 13 14 10 5 7 8 4 8 16 14 10 5 3 6 10 8 4 4 5 2 2 4 7 7 5 5 3 2 1 5 3 4 6 7 6 6 6 5 5 4 3 2 4 4 2 1 5 6 4 3 2 6 7 6 6 5 9 12 13 13 11 10
24 20 18 16 18 26 27 22 27 29 27 30 28 26 29 22 12 6 2 4 3 2 4 9 10 10 13 10 2 2 4 2 4 11 11 7 7 6 8 10 10 8 5 7 5 1 2 2 2 3 4 5 5 4 4 3 7 11 7 7 7 6 5 4 3 4 4 2 5 4 2 1 2 6 4 2 3 5 3 2 3 4 8 11 13 12 11 13
21 19 18 17 19 26 26 21 25 29 29 30 28 30 28 12 4 4 4 4 3 2 2 4 5 9 14 10 4 2 2 2 5 11 7 3 5 6 9 7 5 5 3 4 3 3 4 4 1 1 5 8 8 6 7 5 8 8 4 5 5 4 4 4 4 3 2 4 5 3 2 1 3 5 3 4 5 5 4 3 2 5 8 11 12 11 11 13
22 21 18 16 16 22 24 21 26 31 30 30 31 32 20 5 1 5 4 4 3 3 5 5 5 7 13 12 7 5 3 2 3 7 5 3 4 4 4 4 4 4 1 3 2 2 2 1 1 2 4 6 6 6 5 3 3 4 5 7 5 2 2 2 3 1 2 5 3 2 1 2 5 7 6 8 8 7 8 8 6 8 7 10 11 10 12 13
23 21 19 17 16 22 24 22 27 31 30 31 31 22 9 3 7 8 4 4 2 3 5 5 4 6 12 11 7 5 4 2 5 4 2 3 4 4 2 2 5 5 3 5 4 2 0 3 1 3 2 5 5 6 4 2 1 4 6 6 5 3 2 2 3 2 3 4 3 3 2 2 4 6 8 11 10 8 10 10 9 8 5 8 9 11 14 16
22 21 21 19 17 21 23 23 29 31 31 31 23 10 5 5 8 6 6 5 2 2 3 4 6 6 9 7 6 7 4 1 4 4 2 4 5 5 4 3 3 5 4 4 3 5 4 3 3 3 2 5 4 4 6 6 4 3 3 5 5 5 5 4 4 3 3 2 2 3 2 3 3 3 6 8 9 9 10 12 12 8 3 7 9 13 16 18
21 20 20 19 22 24 23 26 30 30 31 27 12 5 8 9 6 5 7 5 2 2 3 4 8 8 5 2 1 6 3 1 4 4 3 5 6 8 7 6 6 4 6 5 2 3 4 3 3 2 1 5 4 3 4 6 3 2 2 5 3 4 5 3 3 5 4 1 1 2 3 4 3 5 6 6 8 8 8 9 10 7 1 7 11 15 19 21
22 22 21 23 28 26 23 29 30 29 31 20 6 6 9 7 4 5 6 5 5 7 7 5 4 6 4 2 1 5 1 2 6 4 4 5 4 7 7 6 8 7 6 6 3 2 3 2 3 4 3 2 2 2 2 3 3 2 2 3 4 4 8 6 2 0 3 1 2 1 3 5 3 5 6 3 3 5 3 4 8 8 4 10 15 19 22 24
25 26 26 27 29 24 24 31 28 28 27 13 7 10 5 2 3 3 5 7 9 12 11 5 2 5 7 3 4 8 3 3 5 3 4 4 3 7 7 5 7 10 7 4 3 3 5 2 3 2 2 2 1 4 7 6 3 4 3 5 4 3 5 5 2 3 3 2 4 1 4 5 1 3 6 4 3 7 5 3 7 8 9 15 19 21 23 24
28 28 28 28 27 23 26 28 25 26 20 7 10 12 2 2 3 2 6 9 11 10 7 6 3 3 7 7 5 8 7 5 6 5 5 4 4 8 10 6 6 12 11 4 2 2 5 3 3 2 2 2 3 4 5 6 5 3 5 4 4 3 2 2 2 1 1 2 4 3 3 3 3 4 4 2 7 8 6 5 5 8 15 20 21 22 23 22
30 27 23 26 25 23 26 25 23 23 14 6 12 10 1 2 2 2 8 10 9 7 5 6 3 1 5 7 6 7 7 7 8 6 5 5 4 6 12 9 4 10 13 7 3 2 4 4 1 1 1 1 2 1 5 1 4 4 3 3 2 2 4 2 2 4 3 3 3 4 3 3 6 6 5 8 9 7 7 6 5 11 20 25 24 23 21 21
32 19 13 25 28 24 26 24 19 16 9 6 8 5 0 1 1 3 8 8 4 3 4 5 4 4 4 3 4 6 5 5 9 7 4 6 5 4 9 10 5 8 10 5 3 2 3 3 3 1 3 1 2 3 6 7 4 3 3 4 2 2 2 2 1 2 3 4 3 2 3 5 6 5 7 10 6 5 7 7 8 15 23 27 26 23 21 20
28 10 8 27 29 25 29 22 12 9 5 2 3 2 1 2 3 5 6 4 2 2 3 5 5 6 5 4 4 5 4 3 6 6 3 5 6 4 8 12 10 10 7 4 3 4 2 3 5 2 0 3 3 3 3 5 5 5 5 6 6 4 4 3 2 1 2 3 4 4 3 8 6 4 6 7 5 6 8 8 12 19 24 26 23 21 19 20
18 5 9 28 30 29 31 16 3 4 3 2 3 2 3 3 3 5 5 3 3 2 3 4 3 3 5 5 4 6 7 5 5 6 4 6 8 5 7 12 15 17 12 4 3 3 3 4 5 2 3 4 4 3 1 3 2 2 3 4 5 4 5 6 5 4 2 2 2 3 1 7 6 3 5 6 6 7 8 10 16 21 23 22 20 18 18 19
9 7 11 26 31 32 27 9 2 4 1 2 3 3 3 3 2 4 4 2 1 2 2 2 2 3 3 3 4 7 9 5 6 8 5 5 6 4 7 15 19 17 10 4 3 4 4 4 4 1 2 3 4 3 1 1 1 2 3 3 5 3 3 5 5 4 4 4 3 3 2 7 6 3 5 7 7 6 8 14 19 22 22 19 17 18 18 18
9 10 11 16 27 32 19 5 8 8 2 2 4 3 2 1 2 4 4 3 2 2 3 2 2 2 2 3 5 8 10 6 5 8 4 3 4 3 9 21 22 13 8 7 9 9 6 3 5 4 2 3 3 2 2 3 2 4 4 3 5 3 6 4 2 4 2 5 7 5 4 7 5 4 4 3 2 3 8 16 20 20 20 18 17 18 17 17
7 7 9 8 17 25 12 0 5 7 3 5 4 3 3 2 1 3 3 3 2 3 4 2 2 3 2 3 5 5 9 5 3 5 3 1 2 1 6 19 20 12 8 9 13 14 7 3 5 7 6 6 5 5 4 3 3 2 2 5 7 7 9 5 2 4 3 5 6 6 5 5 5 5 5 2 3 3 7 15 18 18 19 19 18 18 17 16
3 2 4 6 7 12 5 3 4 4 5 7 4 3 4 2 0 2 3 2 1 3 4 2 3 5 3 4 5 5 9 3 3 4 6 4 2 1 2 11 14 10 4 7 16 15 4 1 6 8 10 11 10 8 5 6 6 5 6 9 9 9 10 6 5 4 5 3 4 7 7 4 5 5 5 4 5 5 8 15 19 20 20 18 18 18 17 16
2 1 2 3 3 3 2 1 2 2 4 8 5 4 6 4 2 1 2 1 3 4 3 3 3 4 4 8 6 5 9 4 2 3 5 4 2 1 1 4 9 8 4 8 18 12 4 3 8 9 12 10 6 6 5 7 9 11 10 11 10 10 10 9 8 9 6 6 6 11 9 8 8 6 7 8 6 6 9 18 24 24 21 18 18 19 18 17
2 2 3 3 2 1 1 2 4 2 2 5 4 4 6 6 4 4 2 1 1 4 2 1 2 4 7 10 6 5 7 4 3 3 2 3 3 2 2 2 3 6 3 6 11 7 4 6 8 7 11 9 2 4 6 7 8 8 10 12 11 12 12 13 15 13 9 8 14 12 10 11 10 7 9 11 11 14 19 24 26 24 21 19 18 19 19 17
4 4 3 4 3 2 3 7 9 5 1 3 3 4 8 10 8 5 2 2 0 2 2 3 5 5 6 7 6 6 7 6 6 6 3 4 4 3 3 1 1 3 3 4 4 3 3 5 5 7 9 10 4 4 5 7 6 5 9 12 13 15 16 17 18 16 12 14 17 7 9 12 11 9 11 15 21 22 20 20 22 22 21 19 19 20 19 17
4 4 4 5 4 4 5 9 10 6 2 2 3 3 7 11 10 5 1 4 4 2 2 4 5 4 5 5 5 5 6 7 6 8 8 6 3 3 4 4 3 2 3 4 2 2 4 3 3 7 5 8 5 4 4 5 5 5 7 8 11 14 16 16 18 16 12 14 14 4 3 11 8 10 13 17 21 19 13 16 22 22 19 18 20 21 19 18
5 5 6 7 3 2 5 5 5 5 3 3 3 3 5 11 12 7 1 2 6 6 6 7 6 4 3 3 5 4 5 5 4 9 13 10 8 8 5 5 8 7 4 5 3 3 4 2 2 5 5 6 2 4 5 5 5 2 3 7 12 14 14 15 15 11 10 12 12 5 7 12 6 11 14 15 16 16 15 18 23 23 20 20 23 23 21 19
6 6 6 6 3 2 3 3 3 4 3 3 4 3 4 5 7 9 4 2 3 7 11 12 9 5 3 4 6 7 8 9 8 9 12 9 8 9 5 7 13 12 7 6 3 2 5 5 2 4 6 4 3 3 7 7 4 3 6 12 17 16 14 12 8 7 9 11 9 9 12 11 6 12 12 10 9 14 19 23 26 28 26 23 23 23 22 20
Wind_Direction
197 198 199 198 196 192 193 199 203 202 197 196 196 195 194 194 196 197 196 195 196 201 203 207 210 209 211 214 214 213 216 219 222 227 230 231 227 224 219 206 204 191 186 191 197 203 197 185 175 164 159 155 152 156 149 145 147 139 110 91 144 184 203 188 180 188 164 181 193 179 177 166 175 200 192 188 197 218 213 207 209 209 207 191 171 156 180 187
197 197 191 185 187 191 195 199 200 197 194 193 193 193 193 191 193 194 195 194 195 200 205 209 211 209 208 207 207 208 215 221 227 232 229 227 223 220 215 197 195 191 187 193 200 205 199 184 171 163 159 150 141 151 150 146 141 113 95 114 202 203 207 197 182 181 153 60 176 174 177 176 183 189 184 194 203 200 209 216 219 221 219 213 206 192 187 191
198 196 186 182 189 193 195 198 195 192 190 190 191 191 191 191 191 193 194 194 195 198 204 209 209 206 202 200 202 206 215 223 233 235 226 221 221 217 210 194 188 189 190 196 201 204 203 187 171 164 158 143 137 153 148 136 148 108 100 132 235 213 215 209 185 180 176 73 163 168 175 181 192 188 186 201 198 196 218 220 220 225 223 216 213 209 196 194
197 192 185 185 190 194 195 195 191 187 187 188 189 189 190 190 191 193 195 195 195 197 201 202 201 198 195 198 201 206 212 225 242 237 225 217 216 212 205 192 185 186 188 194 198 194 192 182 171 165 153 128 127 150 147 135 163 155 130 173 237 194 169 202 189 187 191 164 164 164 163 184 201 194 195 188 164 244 241 232 229 231 225 210 209 211 205 197
193 187 186 188 190 193 194 190 187 185 185 185 186 188 188 189 191 193 196 195 193 195 195 194 193 193 194 197 200 201 197 212 251 233 222 213 210 206 199 190 188 186 185 193 192 183 178 175 169 160 144 117 125 139 148 141 138 145 169 236 198 150 126 177 179 184 182 157 159 158 155 185 189 195 204 191 187 231 247 246 242 241 235 219 214 213 210 201
188 184 186 191 191 190 189 187 185 185 185 184 186 188 188 188 190 192 194 192 189 190 190 189 190 191 194 195 195 193 186 183 284 219 210 207 203 200 193 190 193 192 191 193 186 176 170 170 167 156 132 106 139 134 151 157 144 152 252 266 133 121 97 148 174 179 179 167 162 163 170 183 177 199 216 209 221 227 247 284 251 243 237 228 224 219 217 208
187 185 187 192 192 187 184 183 183 185 186 185 187 188 187 187 189 190 189 186 185 186 187 188 189 191 192 191 189 190 199 217 319 206 198 199 199 193 189 190 195 198 194 187 183 175 168 170 167 153 127 93 154 137 140 154 146 140 163 181 146 105 76 130 182 162 164 177 170 168 175 181 182 200 225 227 234 234 239 255 245 247 234 226 227 226 227 221
189 188 189 192 192 185 181 181 183 186 187 187 188 186 185 186 185 183 182 182 183 185 186 188 188 190 189 187 187 190 209 219 281 212 190 189 195 189 186 190 192 196 191 187 186 176 169 171 165 153 130 106 161 146 139 141 110 139 154 166 150 120 112 103 135 150 141 159 162 163 169 187 200 208 242 243 244 242 243 247 245 254 244 226 225 227 229 227
190 191 193 195 194 185 179 181 184 186 187 187 185 183 183 181 179 178 179 181 184 184 186 187 187 188 185 186 189 191 213 214 230 240 189 184 189 187 187 190 192 193 188 185 186 179 172 170 167 163 155 149 151 145 148 147 221 189 153 147 146 120 121 112 116 138 131 142 155 160 155 185 198 220 261 254 256 252 246 249 248 249 253 237 226 226 228 229
191 194 195 194 193 187 179 180 184 184 183 182 180 180 180 177 176 177 180 183 183 184 185 186 186 185 183 186 186 190 216 212 220 237 193 184 184 185 188 190 191 191 187 182 181 181 178 175 171 157 147 151 144 143 154 153 200 167 136 120 121 106 110 124 125 127 125 132 156 168 159 175 164 188 257 248 260 257 242 242 246 246 248 247 233 226 227 230
189 191 191 188 189 188 181 178 181 180 177 178 178 179 178 177 177 178 182 183 183 183 183 185 185 184 184 187 186 192 212 210 216 222 195 185 181 181 187 191 192 189 188 183 179 180 180 179 169 149 140 158 143 132 146 138 132 141 132 110 71 79 97 89 118 129 124 120 151 159 151 144 132 193 238 227 247 282 243 233 238 242 243 244 239 229 226 228
189 189 187 185 184 187 184 179 178 177 175 177 178 179 179 178 178 180 182 183 183 183 182 183 184 184 184 189 198 201 204 205 209 211 195 187 181 180 184 188 189 187 188 187 181 179 175 173 173 161 138 153 142 119 142 131 123 124 123 121 3 17 59 31 56 131 136 124 141 130 123 277 207 225 234 229 239 257 251 230 230 235 238 239 238 232 227 228
190 190 189 185 183 184 184 180 176 175 175 177 178 178 178 178 179 180 182 182 182 181 181 182 182 184 182 186 204 206 204 206 205 203 191 188 185 183 184 184 185 183 185 187 184 181 174 171 179 169 138 145 134 120 138 119 119 117 86 119 34 15 349 346 14 8 138 132 157 141 248 269 254 245 233 226 232 237 243 236 231 232 234 235 236 237 232 229
188 190 188 183 182 183 183 179 175 175 176 177 177 178 178 179 180 181 181 180 180 180 179 180 178 181 183 185 204 209 211 210 204 200 188 187 185 183 183 181 180 180 180 180 180 179 172 166 174 159 134 139 128 120 116 71 94 112 72 75 77 145 260 317 7 23 136 163 179 144 225 261 268 265 224 226 233 232 239 237 236 234 233 234 236 240 240 235
186 189 186 183 182 182 182 178 174 175 177 176 177 177 177 179 180 181 180 178 179 178 177 178 176 176 182 190 202 208 212 211 204 196 185 183 182 181 179 173 173 174 171 168 168 167 162 163 161 138 118 128 129 116 69 25 39 46 116 288 354 166 252 313 10 40 131 197 160 127 227 269 271 264 202 219 232 232 242 244 242 239 235 235 237 240 242 241
184 184 183 182 181 180 181 177 175 177 176 176 177 176 177 178 179 180 178 176 176 175 175 176 177 174 174 191 196 201 206 206 200 189 183 178 178 178 171 164 163 164 162 161 162 158 154 155 141 119 117 127 127 107 69 54 3 355 119 182 211 168 250 312 4 13 43 189 295 104 223 268 291 257 173 153 191 221 246 250 247 247 245 241 240 241 242 241
181 181 181 180 179 180 180 177 177 178 175 176 175 173 174 172 174 177 173 173 173 171 173 175 176 176 181 194 192 196 199 199 194 185 179 174 175 176 167 158 156 160 161 158 161 157 150 145 132 121 112 109 108 102 98 70 250 262 59 117 193 181 188 282 279 331 30 132 235 8 246 247 269 273 243 225 263 289 281 272 266 258 254 249 242 241 240 241
180 179 179 179 179 181 181 180 179 177 175 172 168 166 167 165 170 173 169 168 164 158 166 173 169 171 217 205 191 192 194 193 187 179 175 171 170 172 168 159 155 157 153 149 155 155 144 124 120 126 62 70 129 124 143 204 187 175 151 132 186 201 203 245 241 275 24 99 210 274 265 261 272 281 271 263 273 282 280 279 276 268 259 252 244 240 239 240
178 178 178 178 179 182 182 182 179 176 171 164 158 155 155 154 157 164 169 167 159 150 165 179 172 159 231 194 187 185 184 183 180 174 172 169 163 168 168 159 159 155 144 136 148 149 133 101 100 131 134 156 185 170 178 194 160 156 160 144 158 175 231 244 244 277 13 129 223 226 239 268 276 283 278 274 276 276 277 278 274 269 262 254 247 244 242 241
176 177 178 178 179 181 181 181 180 176 169 163 157 151 147 145 139 156 170 168 166 159 217 184 180 172 49 172 177 176 170 171 175 172 170 168 164 164 159 155 156 147 138 138 152 142 118 126 157 177 183 181 180 152 143 149 128 133 129 114 148 172 238 244 254 301 35 155 245 241 252 276 271 272 275 276 279 271 270 272 270 267 260 255 251 248 245 243
176 178 179 180 180 179 179 179 178 174 169 167 163 158 160 161 153 169 166 161 174 165 33 182 181 192 92 163 169 166 159 159 171 172 170 169 165 163 158 154 146 120 135 125 112 100 106 154 204 208 185 160 146 127 112 99 88 98 126 135 157 195 224 234 239 309 23 174 260 347 309 273 265 266 270 272 271 257 257 259 264 265 261 258 255 252 250 249
174 179 181 181 180 178 179 176 173 172 170 171 169 167 176 176 174 177 165 145 169 164 59 179 181 185 137 160 163 160 155 146 164 172 170 169 168 170 165 149 129 129 188 107 102 96 134 204 228 191 142 109 88 95 98 89 86 85 110 131 167 217 229 281 284 327 22 163 265 351 331 276 266 262 264 264 256 256 259 255 258 262 262 260 257 256 257 255
176 178 180 182 180 179 178 174 170 170 173 176 174 171 177 178 178 175 164 132 152 169 85 178 184 182 141 158 165 160 156 143 160 173 171 172 171 170 161 140 116 135 151 157 141 142 174 252 234 157 137 112 80 72 95 86 82 90 109 128 182 232 188 222 253 318 19 81 266 311 308 284 281 285 274 263 256 262 267 261 259 258 259 260 259 261 263 262
180 176 178 181 180 179 176 173 170 171 176 179 177 172 172 175 167 161 156 95 122 165 128 176 187 187 154 157 171 169 160 150 163 173 173 174 168 158 157 140 119 136 165 168 147 149 185 277 168 140 132 122 112 101 116 113 81 5 152 144 168 195 183 202 206 334 10 36 36 17 320 294 309 321 286 282 286 274 273 270 264 259 259 263 264 266 266 265
183 177 178 179 180 181 174 173 173 173 177 178 178 173 169 170 159 155 147 67 104 148 112 172 183 188 178 164 172 172 156 148 162 171 174 176 166 149 142 139 136 163 176 141 125 150 208 262 143 135 113 122 126 155 175 149 131 290 222 178 173 171 162 161 121 84 47 6 358 25 341 288 318 314 271 307 341 302 293 286 276 278 277 274 275 273 270 267
186 183 180 179 183 179 172 175 177 175 177 179 178 171 168 168 157 157 146 53 178 192 146 171 172 185 188 170 163 156 144 162 170 172 174 176 173 157 139 128 100 154 164 135 122 162 187 97 124 129 130 130 132 180 203 156 131 209 233 169 145 135 131 138 132 100 102 213 330 52 146 257 316 310 275 311 326 301 301 296 302 333 340 315 303 290 279 272
189 189 187 185 185 180 176 177 177 176 178 179 175 169 169 166 158 161 135 40 231 174 142 168 170 179 183 166 161 154 148 168 159 171 174 173 179 167 157 158 87 137 163 131 142 217 117 106 87 102 116 123 141 193 210 150 134 208 229 130 129 128 136 147 120 101 178 213 331 21 109 210 300 281 276 323 319 300 305 306 332 5 21 19 5 338 307 278
189 190 192 189 188 186 181 179 180 178 176 175 171 167 167 162 159 157 118 65 194 145 138 166 162 169 171 164 165 153 137 151 142 176 179 171 176 165 160 183 143 137 151 135 179 248 102 153 168 135 123 149 177 225 199 144 123 243 205 124 134 129 127 126 100 95 14 13 292 329 46 168 269 276 300 354 332 296 301 302 323 4 35 44 45 43 39 70
186 191 195 192 188 187 185 186 185 178 168 166 166 167 164 157 151 132 87 154 157 112 142 155 153 165 161 156 161 130 127 145 126 166 171 167 174 160 129 163 137 111 60 88 161 206 74 177 183 146 144 182 188 324 192 145 124 173 148 102 85 76 80 82 87 98 44 36 233 274 21 163 264 285 307 10 317 269 284 290 297 353 40 45 46 54 69 95
185 194 198 194 187 184 187 191 185 172 160 161 164 165 161 153 141 120 143 201 146 96 140 151 161 165 153 142 118 79 114 120 115 137 150 153 158 134 110 129 123 105 47 38 92 197 353 112 137 121 148 158 133 65 41 92 132 141 126 82 68 41 36 51 51 79 66 316 249 257 327 75 268 280 263 220 221 230 253 290 294 353 41 46 44 56 76 98
189 196 200 200 192 186 188 188 178 168 160 159 160 160 156 142 110 139 182 185 122 99 118 146 169 155 156 158 154 146 80 50 132 138 143 138 130 121 113 121 103 82 49 41 55 334 11 83 87 105 131 127 108 66 44 77 118 119 101 97 87 13 12 28 360 41 104 252 261 272 310 122 215 260 247 232 242 222 197 187 254 324 15 39 47 63 85 102
189 194 198 202 199 191 189 184 173 166 160 158 157 157 150 111 155 185 188 155 139 186 178 181 200 171 168 166 154 157 116 83 166 150 146 144 143 156 150 168 152 97 136 177 141 356 46 101 313 94 151 158 123 81 46 14 40 77 106 116 102 23 18 4 310 332 207 241 270 284 235 179 233 251 252 252 255 241 222 216 250 299 347 32 48 74 99 111
183 187 188 193 198 191 188 180 169 165 162 159 158 156 131 114 194 199 188 172 181 190 157 155 172 166 164 159 157 158 115 134 185 159 137 137 155 202 250 192 147 119 178 175 134 117 109 307 308 114 206 220 164 125 136 237 197 133 141 138 134 123 116 231 259 281 252 250 284 274 241 248 264 262 248 244 247 245 236 239 264 293 341 33 54 88 106 115
181 183 184 188 191 188 187 177 168 166 163 161 161 151 123 171 199 182 171 201 238 69 99 124 119 135 158 160 176 168 119 136 177 130 108 131 148 198 232 224 163 97 107 143 149 161 170 260 223 166 195 195 183 169 155 142 136 171 161 130 146 155 153 197 212 201 227 254 295 284 245 192 206 249 236 238 262 261 245 251 264 271 332 52 81 104 110 114
181 186 186 185 181 182 183 175 169 167 166 164 163 159 170 194 209 176 171 191 189 84 64 105 121 139 167 34 219 185 130 157 175 120 135 166 173 191 192 201 197 136 125 155 197 171 163 237 259 306 270 156 170 217 134 106 110 226 110 106 161 181 137 135 175 175 171 150 297 259 237 216 217 271 265 263 283 266 240 248 247 238 187 93 110 115 113 114
178 182 183 180 177 177 176 173 170 169 168 164 160 192 195 201 201 182 166 146 145 133 105 94 110 142 169 33 270 222 352 107 162 148 177 192 203 199 193 199 193 180 164 157 163 163 157 255 321 356 13 82 138 195 101 98 157 161 119 163 210 161 115 114 169 64 84 166 258 220 247 288 313 291 299 338 284 261 254 236 214 208 162 122 123 120 117 116
174 174 176 175 172 173 172 171 170 171 172 169 183 200 204 155 168 165 139 125 136 139 128 138 174 156 169 172 189 199 185 120 156 168 180 187 223 200 199 223 194 189 194 155 160 200 153 126 339 27 78 10 35 100 67 42 90 123 173 196 179 115 98 112 141 17 46 225 275 264 231 282 327 266 323 11 220 251 276 238 197 184 150 132 128 123 120 117
169 169 173 173 169 169 169 169 172 174 173 177 204 207 197 104 185 149 136 136 135 141 142 159 172 154 172 182 185 185 178 164 169 177 170 185 238 198 181 201 194 191 199 163 135 204 130 114 327 14 127 301 353 97 87 28 40 107 172 158 116 137 165 110 134 154 128 224 275 304 273 261 204 218 301 275 211 224 235 213 185 165 148 139 133 127 121 117
165 165 171 174 169 166 168 169 174 174 171 188 207 213 192 123 228 179 154 148 134 135 157 171 162 120 173 175 165 171 183 176 167 175 178 186 233 203 180 187 191 190 191 167 148 183 118 125 225 324 264 274 10 121 180 172 28 45 114 118 81 131 163 166 149 163 177 192 239 309 326 258 226 214 215 225 219 201 188 182 181 170 153 144 140 132 123 120
165 160 169 175 169 166 168 167 167 171 183 204 197 202 179 132 186 180 164 153 130 122 165 183 163 143 162 166 151 164 182 174 167 182 203 186 202 227 194 186 165 169 174 137 117 153 102 125 169 323 328 195 175 219 194 175 148 113 133 161 176 78 117 170 90 116 143 158 183 245 296 267 249 207 203 224 226 191 180 166 172 171 155 146 143 135 128 127
166 150 159 172 171 168 165 161 163 178 192 197 163 154 205 159 127 163 170 152 97 76 136 148 146 149 153 150 161 166 154 151 174 186 209 194 199 229 208 190 163 149 146 104 127 165 136 140 149 140 202 191 221 258 204 182 172 162 175 183 175 146 121 149 245 247 120 138 169 169 251 270 255 199 210 226 216 210 206 175 165 166 155 147 144 138 133 132
160 122 153 171 177 172 164 158 164 175 153 148 156 137 143 133 125 158 172 143 86 61 95 110 115 140 154 157 159 158 153 157 182 187 205 211 207 212 205 185 162 154 151 139 162 156 112 107 117 145 209 210 258 293 211 212 194 151 199 190 165 159 136 150 206 219 120 108 139 119 249 273 261 207 215 235 237 242 228 190 169 163 156 148 143 139 136 135
130 87 138 170 181 173 163 164 189 162 168 181 147 85 108 127 116 146 173 169 103 76 90 103 136 144 158 160 145 159 169 170 187 195 205 214 210 213 183 167 158 156 152 136 152 147 119 110 109 65 310 314 320 336 24 351 96 170 233 188 161 185 145 145 182 165 134 169 149 86 279 271 271 251 247 253 255 257 227 193 174 164 157 149 143 139 138 138
100 92 113 162 182 175 166 185 193 179 185 132 107 76 108 101 109 147 178 190 163 134 128 135 169 148 154 151 140 168 182 177 200 207 201 194 198 188 170 167 163 162 171 178 176 172 176 156 125 116 45 4 346 340 328 310 233 201 225 185 167 139 97 98 127 107 129 201 160 142 232 256 274 306 314 281 214 222 211 190 178 169 158 149 146 145 143 143
98 95 90 112 169 176 171 121 173 168 145 128 122 136 130 52 51 158 161 163 161 146 141 151 145 113 116 141 116 158 186 173 175 195 191 206 203 113 170 177 175 173 187 190 169 162 173 183 150 154 167 178 196 205 214 227 191 195 209 182 182 161 143 152 129 117 216 224 158 168 230 258 282 315 329 331 113 128 191 188 182 174 161 154 152 151 150 149
88 93 101 82 135 168 163 54 112 132 151 153 147 165 157 133 191 141 119 141 181 125 102 101 138 103 87 152 130 163 198 184 73 168 186 189 201 350 173 186 188 183 175 171 162 153 141 217 181 186 197 198 201 202 176 127 143 191 197 181 183 177 166 148 112 161 204 166 159 222 231 228 248 270 283 248 179 164 180 183 185 179 167 161 159 156 156 159
70 64 142 99 95 130 84 52 119 87 147 169 169 175 167 149 133 137 120 173 190 160 88 38 150 143 157 167 151 174 196 185 94 164 174 168 184 340 66 166 188 186 158 160 165 149 89 210 198 202 215 216 196 186 168 140 168 193 184 174 179 175 163 157 184 206 164 117 228 238 214 214 232 228 231 227 203 195 194 189 188 182 170 164 164 163 165 167
99 103 120 122 132 136 79 171 174 106 116 173 166 154 164 165 164 172 171 24 176 181 133 43 219 201 176 169 158 159 171 170 187 189 147 140 152 103 58 53 176 189 160 153 168 147 116 201 205 196 217 231 172 153 177 164 172 181 171 174 175 167 170 183 208 211 149 165 238 228 183 213 225 198 213 216 196 195 196 193 189 179 171 172 172 170 171 172
105 110 112 117 109 70 93 134 149 141 119 173 165 161 173 181 184 183 140 82 69 248 186 176 214 203 181 177 158 157 171 174 197 208 171 152 158 131 118 93 191 200 160 135 171 166 146 199 198 174 212 239 206 164 183 164 157 163 175 180 171 171 185 194 210 216 189 208 237 203 166 223 222 187 209 211 200 199 195 194 192 182 177 178 176 176 178 177
115 116 128 125 97 80 109 128 141 150 169 186 198 199 182 184 186 185 160 151 165 223 213 186 189 161 163 176 148 166 194 175 184 202 173 151 167 174 173 179 170 168 160 149 170 189 183 213 173 145 202 246 214 176 180 157 154 173 183 184 175 180 194 201 213 219 206 223 243 202 198 254 229 183 210 215 207 203 197 199 200 192 184 181 181 183 184 181
126 114 127 132 108 111 137 133 138 150 170 190 201 199 191 197 187 161 147 208 176 179 176 167 162 132 116 141 143 175 194 155 152 188 178 170 179 182 192 188 162 149 168 178 159 156 180 205 84 120 187 246 240 168 161 101 77 107 191 192 188 190 200 206 213 211 194 215 234 224 247 261 210 173 208 220 209 204 204 205 205 200 194 189 188 189 188 186
140 115 122 131 119 149 152 135 147 160 173 184 190 184 186 206 183 157 167 242 190 183 180 169 158 137 136 176 181 174 158 124 103 136 157 157 158 161 164 166 161 158 162 164 148 149 162 154 128 153 184 248 325 131 133 91 70 258 236 203 195 198 205 208 220 223 200 199 205 211 233 244 183 167 198 213 204 206 210 211 209 206 201 196 196 196 193 190
Height
1447 1449 1452 1455 1457 1460 1463 1466 1467 1469 1471 1474 1477 1480 1483 1487 1490 1493 1496 1498 1501 1503 1506 1508 1510 1512 1513 1515 1516 1518 1519 1520 1521 1521 1520 1521 1523 1525 1525 1526 1527 1527 1529 1531 1533 1534 1535 1536 1536 1537 1538 1540 1542 1544 1545 1547 1548 1549 1554 1557 1559 1563 1560 1556 1559 1557 1555 1554 1555 1557 1558 1560 1562 1563 1564 1565 1566 1566 1566 1566 1566 1566 1567 1568 1568 1568 1569 1570
1445 1448 1450 1453 1456 1459 1461 1464 1466 1468 1470 1472 1475 1478 1481 1485 1488 1491 1494 1497 1500 1503 1505 1507 1509 1510 1512 1514 1515 1517 1518 1519 1519 1519 1518 1521 1522 1523 1525 1525 1526 1527 1528 1530 1532 1534 1535 1535 1536 1536 1538 1540 1542 1544 1545 1547 1548 1550 1556 1558 1558 1560 1555 1552 1554 1553 1554 1553 1554 1557 1558 1559 1561 1562 1564 1565 1565 1565 1565 1565 1565 1566 1566 1567 1567 1568 1568 1569
1444 1446 1449 1452 1455 1458 1460 1462 1464 1466 1469 1471 1474 1476 1480 1483 1487 1489 1492 1496 1499 1501 1503 1505 1507 1509 1511 1513 1515 1517 1518 1519 1518 1516 1518 1520 1521 1522 1524 1524 1525 1526 1527 1530 1532 1533 1534 1535 1535 1536 1537 1539 1542 1543 1545 1547 1548 1550 1554 1556 1555 1555 1553 1552 1553 1553 1553 1553 1554 1556 1558 1560 1561 1562 1563 1564 1564 1565 1564 1564 1564 1564 1565 1566 1567 1567 1568 1569
1443 1445 1448 1451 1454 1456 1458 1461 1463 1465 1467 1469 1472 1475 1478 1482 1485 1488 1491 1494 1497 1500 1502 1504 1505 1507 1510 1512 1514 1516 1518 1519 1515 1514 1517 1518 1519 1521 1522 1523 1524 1525 1527 1529 1531 1532 1534 1535 1535 1536 1537 1539 1542 1543 1545 1547 1548 1550 1552 1553 1553 1553 1553 1553 1553 1553 1553 1553 1554 1556 1558 1560 1561 1562 1563 1563 1564 1564 1562 1561 1562 1562 1563 1565 1565 1566 1567 1567
1442 1444 1447 1449 1452 1454 1457 1459 1462 1464 1466 1468 1471 1474 1477 1480 1484 1487 1490 1493 1496 1498 1500 1502 1504 1507 1510 1511 1514 1515 1518 1519 1513 1512 1516 1517 1518 1520 1521 1522 1524 1525 1527 1529 1530 1531 1532 1534 1534 1535 1537 1539 1541 1543 1545 1547 1548 1550 1552 1552 1553 1553 1553 1552 1553 1553 1553 1554 1554 1556 1558 1559 1560 1561 1561 1562 1562 1561 1560 1560 1561 1562 1563 1564 1564 1565 1565 1566
1441 1443 1446 1448 1450 1453 1456 1458 1461 1463 1465 1467 1469 1472 1476 1479 1482 1485 1488 1491 1494 1496 1498 1501 1503 1506 1509 1511 1513 1514 1516 1515 1511 1511 1514 1515 1517 1519 1520 1522 1523 1525 1526 1528 1529 1530 1531 1533 1534 1535 1536 1539 1542 1542 1544 1547 1547 1549 1551 1552 1553 1554 1553 1553 1553 1553 1553 1554 1554 1555 1557 1558 1560 1560 1561 1561 1559 1559 1560 1560 1560 1561 1562 1563 1564 1564 1564 1565
1439 1442 1444 1446 1449 1452 1454 1457 1460 1461 1463 1465 1468 1471 1475 1478 1481 1484 1487 1490 1493 1495 1498 1500 1503 1506 1508 1510 1512 1513 1513 1511 1509 1510 1512 1514 1516 1517 1519 1521 1523 1524 1526 1527 1528 1528 1529 1531 1533 1534 1536 1539 1541 1542 1544 1546 1547 1548 1550 1552 1553 1554 1554 1554 1553 1553 1553 1553 1554 1556 1557 1558 1559 1559 1560 1558 1556 1558 1559 1560 1560 1560 1561 1562 1563 1563 1564 1564
1438 1440 1443 1445 1448 1450 1453 1456 1458 1460 1462 1464 1468 1471 1474 1477 1480 1483 1486 1489 1492 1494 1497 1500 1502 1505 1507 1509 1510 1512 1511 1509 1510 1510 1511 1513 1515 1517 1519 1520 1522 1524 1525 1526 1527 1527 1528 1530 1532 1533 1536 1538 1539 1541 1543 1545 1547 1548 1549 1551 1552 1553 1554 1554 1554 1553 1553 1553 1554 1556 1557 1558 1559 1559 1559 1556 1556 1558 1558 1558 1560 1560 1560 1561 1561 1562 1563 1563
1436 1439 1441 1444 1446 1449 1452 1454 1457 1458 1461 1464 1468 1471 1473 1476 1479 1482 1486 1489 1491 1493 1496 1499 1502 1504 1506 1507 1509 1510 1509 1508 1510 1510 1511 1513 1514 1516 1518 1520 1521 1523 1524 1526 1527 1527 1527 1529 1530 1532 1534 1537 1538 1540 1542 1544 1547 1547 1548 1550 1552 1553 1554 1554 1554 1554 1554 1554 1554 1555 1557 1558 1559 1560 1557 1554 1555 1556 1556 1557 1558 1559 1560 1560 1561 1561 1562 1562
1435 1438 1440 1443 1445 1448 1450 1453 1455 1457 1460 1464 1467 1470 1473 1475 1478 1482 1485 1488 1490 1493 1496 1498 1501 1503 1504 1506 1508 1509 1507 1508 1510 1511 1512 1512 1514 1516 1518 1520 1521 1522 1523 1525 1526 1527 1527 1528 1530 1531 1533 1535 1538 1540 1542 1543 1544 1546 1548 1550 1552 1553 1554 1554 1555 1555 1554 1555 1555 1555 1557 1558 1559 1560 1555 1553 1554 1554 1554 1555 1556 1557 1558 1559 1560 1560 1561 1561
1434 1437 1439 1442 1444 1447 1449 1452 1454 1456 1459 1463 1466 1469 1472 1475 1478 1481 1484 1487 1490 1493 1495 1498 1500 1502 1504 1505 1507 1507 1507 1508 1510 1510 1512 1513 1514 1516 1518 1519 1520 1522 1523 1524 1525 1526 1527 1528 1530 1531 1532 1535 1538 1540 1542 1542 1544 1545 1547 1550 1553 1554 1554 1555 1555 1555 1555 1555 1555 1555 1557 1558 1559 1558 1553 1552 1553 1552 1553 1553 1554 1555 1557 1558 1559 1559 1560 1560
1432 1435 1438 1440 1443 1446 1448 1450 1453 1455 1459 1462 1465 1468 1471 1475 1478 1481 1484 1487 1490 1492 1495 1497 1499 1501 1503 1505 1506 1506 1507 1508 1509 1510 1511 1513 1514 1516 1517 1519 1520 1521 1522 1524 1524 1526 1527 1528 1529 1530 1531 1534 1537 1540 1541 1543 1544 1546 1547 1550 1554 1554 1554 1555 1555 1555 1555 1555 1556 1556 1557 1557 1557 1554 1550 1551 1552 1552 1552 1552 1553 1554 1555 1557 1557 1558 1558 1559
1431 1434 1437 1439 1442 1444 1447 1450 1452 1455 1458 1461 1465 1468 1471 1475 1478 1481 1484 1487 1490 1492 1495 1497 1499 1501 1502 1504 1505 1506 1507 1508 1509 1510 1511 1512 1514 1515 1517 1518 1519 1521 1522 1523 1524 1525 1527 1528 1529 1530 1531 1533 1537 1539 1540 1543 1544 1546 1549 1551 1554 1556 1555 1555 1555 1555 1555 1556 1555 1556 1558 1554 1551 1550 1549 1550 1551 1551 1551 1551 1552 1553 1554 1555 1556 1556 1557 1557
1430 1433 1435 1438 1441 1443 1446 1449 1451 1454 1458 1461 1465 1468 1471 1475 1478 1481 1484 1487 1490 1492 1494 1497 1499 1500 1502 1503 1504 1506 1507 1508 1508 1509 1510 1512 1514 1515 1517 1518 1519 1520 1521 1523 1524 1525 1526 1528 1529 1530 1532 1533 1536 1538 1541 1545 1546 1548 1552 1554 1559 1560 1556 1555 1556 1556 1555 1556 1555 1556 1558 1552 1548 1549 1548 1549 1550 1550 1550 1550 1551 1551 1552 1553 1554 1555 1555 1556
1428 1431 1434 1437 1440 1442 1445 1448 1451 1454 1457 1461 1464 1468 1471 1475 1478 1482 1485 1487 1490 1492 1494 1497 1499 1500 1502 1503 1504 1505 1506 1507 1508 1509 1510 1512 1513 1515 1516 1517 1518 1519 1521 1522 1524 1525 1526 1527 1528 1530 1533 1534 1535 1539 1543 1546 1549 1552 1552 1557 1565 1562 1556 1556 1556 1556 1555 1556 1556 1556 1557 1552 1548 1548 1547 1548 1548 1549 1549 1550 1551 1550 1551 1552 1552 1553 1553 1554
1427 1430 1433 1436 1439 1442 1444 1447 1450 1453 1456 1460 1464 1468 1472 1475 1478 1482 1485 1487 1490 1492 1494 1497 1498 1500 1501 1502 1503 1503 1505 1506 1507 1508 1509 1511 1513 1515 1516 1517 1518 1519 1520 1522 1524 1525 1526 1527 1528 1531 1533 1535 1537 1539 1544 1550 1552 1555 1553 1555 1563 1562 1557 1557 1556 1557 1557 1556 1556 1556 1555 1551 1548 1547 1547 1548 1548 1548 1549 1548 1550 1550 1550 1550 1550 1551 1551 1552
1426 1429 1432 1435 1438 1441 1443 1446 1449 1452 1456 1459 1463 1468 1471 1475 1478 1482 1484 1487 1490 1492 1495 1496 1498 1500 1500 1500 1501 1501 1502 1504 1506 1507 1508 1511 1513 1514 1516 1516 1517 1519 1520 1522 1524 1525 1525 1526 1528 1531 1533 1536 1538 1538 1546 1554 1553 1555 1556 1556 1563 1564 1560 1557 1554 1557 1558 1556 1556 1556 1555 1550 1547 1548 1547 1548 1548 1548 1548 1547 1548 1548 1548 1548 1548 1549 1549 1549
1426 1428 1432 1435 1437 1440 1443 1445 1448 1451 1455 1459 1463 1468 1471 1475 1478 1481 1484 1486 1489 1492 1495 1496 1498 1500 1499 1496 1497 1499 1500 1503 1505 1506 1508 1510 1512 1514 1515 1516 1517 1518 1520 1522 1524 1525 1525 1527 1528 1531 1534 1538 1539 1537 1543 1550 1547 1550 1554 1554 1558 1562 1562 1558 1555 1556 1558 1556 1556 1557 1556 1550 1547 1547 1546 1547 1548 1547 1546 1546 1545 1545 1545 1546 1546 1546 1546 1547
1425 1428 1431 1434 1436 1439 1442 1445 1448 1451 1455 1458 1462 1466 1471 1474 1478 1482 1483 1485 1487 1490 1492 1492 1492 1494 1493 1492 1495 1497 1499 1502 1504 1505 1507 1509 1511 1514 1515 1516 1517 1518 1519 1521 1523 1524 1524 1527 1529 1532 1535 1537 1537 1535 1537 1541 1541 1544 1549 1549 1550 1553 1558 1560 1557 1558 1559 1557 1556 1556 1554 1550 1548 1546 1545 1544 1546 1546 1544 1544 1543 1542 1543 1543 1544 1543 1544 1544
1425 1427 1430 1433 1435 1438 1441 1445 1448 1451 1454 1457 1459 1463 1468 1470 1476 1481 1482 1483 1484 1485 1486 1487 1488 1489 1488 1489 1493 1496 1499 1501 1503 1505 1507 1508 1510 1513 1514 1516 1517 1518 1519 1520 1523 1524 1524 1527 1530 1530 1532 1533 1535 1538 1539 1541 1542 1544 1548 1550 1552 1552 1552 1558 1559 1559 1560 1557 1556 1557 1555 1552 1549 1546 1544 1542 1544 1544 1542 1541 1540 1539 1540 1540 1541 1541 1541 1541
1424 1427 1429 1432 1434 1437 1441 1444 1447 1451 1453 1456 1457 1459 1462 1463 1467 1471 1475 1481 1483 1484 1485 1486 1488 1489 1488 1489 1491 1494 1497 1500 1503 1504 1506 1508 1509 1511 1513 1515 1516 1518 1520 1521 1522 1524 1525 1528 1529 1529 1531 1534 1537 1541 1541 1542 1544 1545 1547 1549 1554 1556 1553 1556 1558 1558 1560 1557 1556 1560 1557 1550 1547 1544 1541 1540 1541 1540 1539 1538 1537 1537 1537 1537 1538 1538 1538 1538
1424 1426 1428 1431 1434 1437 1440 1443 1447 1450 1452 1454 1455 1457 1459 1461 1463 1464 1469 1477 1483 1484 1485 1486 1488 1489 1489 1490 1492 1493 1495 1498 1502 1504 1505 1507 1508 1509 1511 1513 1515 1519 1521 1521 1522 1526 1528 1528 1529 1531 1534 1536 1540 1542 1540 1542 1544 1546 1550 1550 1552 1556 1555 1557 1558 1558 1560 1556 1554 1559 1555 1546 1544 1543 1539 1538 1537 1535 1535 1535 1534 1534 1534 1534 1534 1534 1535 1536
1423 1425 1428 1430 1433 1436 1439 1442 1445 1448 1450 1452 1454 1457 1460 1463 1466 1467 1469 1476 1482 1485 1485 1486 1488 1489 1490 1491 1492 1493 1494 1496 1499 1502 1504 1505 1506 1508 1509 1512 1515 1519 1521 1520 1522 1527 1530 1529 1529 1532 1533 1534 1540 1543 1540 1542 1546 1547 1549 1549 1551 1556 1555 1552 1555 1558 1559 1558 1557 1557 1553 1544 1540 1539 1535 1534 1534 1532 1532 1532 1531 1532 1531 1531 1532 1531 1532 1533
1422 1424 1427 1429 1433 1436 1438 1442 1444 1446 1448 1451 1455 1458 1460 1464 1467 1468 1471 1477 1482 1484 1485 1487 1488 1489 1490 1491 1492 1493 1494 1495 1497 1500 1503 1504 1506 1507 1508 1511 1515 1518 1521 1521 1522 1525 1528 1530 1532 1533 1533 1534 1538 1542 1541 1540 1545 1550 1548 1545 1547 1552 1553 1552 1555 1557 1558 1560 1560 1555 1549 1542 1537 1536 1532 1531 1533 1531 1530 1529 1528 1529 1529 1528 1528 1529 1529 1529
1421 1424 1426 1429 1432 1434 1438 1441 1442 1445 1447 1451 1455 1458 1461 1464 1466 1468 1471 1478 1484 1486 1486 1487 1488 1489 1489 1490 1491 1492 1494 1495 1497 1499 1502 1504 1505 1507 1509 1511 1513 1518 1522 1523 1524 1525 1527 1531 1532 1532 1534 1535 1536 1540 1540 1539 1543 1549 1547 1544 1544 1545 1549 1554 1556 1554 1553 1556 1560 1558 1551 1542 1536 1533 1531 1532 1534 1530 1528 1528 1527 1527 1528 1527 1526 1526 1527 1527
1420 1423 1426 1428 1431 1433 1437 1439 1440 1444 1447 1450 1454 1458 1462 1464 1467 1468 1470 1481 1486 1485 1486 1487 1488 1488 1488 1490 1491 1493 1495 1497 1498 1499 1501 1504 1504 1505 1508 1511 1513 1518 1522 1523 1525 1526 1529 1533 1533 1532 1533 1535 1537 1539 1539 1541 1544 1546 1545 1546 1548 1546 1548 1552 1551 1550 1552 1555 1561 1563 1556 1548 1539 1530 1530 1536 1535 1529 1527 1526 1526 1526 1526 1525 1525 1524 1524 1524
1419 1422 1425 1428 1430 1432 1434 1435 1439 1442 1445 1450 1453 1458 1461 1463 1468 1467 1473 1491 1491 1480 1483 1486 1486 1486 1487 1490 1490 1492 1496 1497 1498 1500 1501 1502 1504 1504 1507 1511 1513 1516 1520 1521 1524 1527 1530 1533 1533 1533 1534 1536 1537 1537 1538 1540 1542 1544 1546 1548 1548 1545 1546 1549 1549 1550 1554 1557 1561 1563 1558 1556 1549 1533 1532 1538 1533 1526 1525 1525 1526 1525 1525 1524 1524 1523 1522 1522
1418 1422 1424 1427 1430 1431 1433 1435 1437 1439 1443 1450 1454 1459 1461 1463 1468 1466 1477 1498 1490 1475 1479 1483 1484 1486 1487 1489 1491 1491 1493 1494 1496 1500 1501 1502 1504 1504 1506 1509 1510 1514 1518 1518 1522 1526 1528 1530 1531 1531 1533 1535 1535 1536 1538 1538 1539 1545 1551 1552 1549 1547 1548 1551 1550 1552 1559 1559 1555 1559 1560 1558 1551 1536 1533 1538 1531 1524 1522 1524 1527 1525 1524 1524 1523 1522 1521 1520
1417 1420 1424 1427 1429 1431 1434 1435 1436 1440 1445 1450 1455 1459 1461 1465 1467 1468 1481 1491 1478 1471 1477 1480 1483 1486 1486 1489 1491 1491 1492 1494 1496 1498 1501 1502 1503 1503 1505 1509 1510 1514 1518 1516 1519 1525 1528 1528 1528 1528 1529 1532 1536 1540 1541 1538 1538 1545 1552 1552 1551 1553 1554 1554 1553 1552 1559 1559 1553 1561 1565 1558 1547 1533 1531 1535 1531 1526 1525 1526 1528 1526 1525 1525 1523 1523 1522 1521
1416 1419 1423 1426 1427 1430 1433 1434 1438 1443 1447 1450 1455 1458 1462 1465 1467 1476 1491 1483 1468 1473 1478 1478 1481 1483 1485 1489 1491 1492 1492 1494 1495 1497 1501 1502 1503 1504 1505 1509 1510 1514 1518 1519 1522 1526 1528 1528 1528 1529 1529 1532 1537 1541 1543 1541 1540 1545 1548 1547 1548 1552 1553 1555 1559 1557 1560 1561 1559 1569 1573 1564 1551 1534 1527 1530 1529 1527 1528 1527 1527 1525 1525 1525 1524 1524 1523 1522
1415 1419 1422 1424 1426 1429 1431 1435 1439 1443 1447 1450 1454 1458 1461 1466 1470 1481 1487 1471 1464 1476 1479 1478 1480 1480 1483 1485 1489 1493 1493 1495 1496 1497 1500 1502 1504 1504 1506 1509 1511 1516 1520 1521 1524 1528 1529 1528 1529 1530 1530 1533 1536 1539 1544 1544 1544 1544 1542 1543 1547 1554 1556 1557 1561 1562 1561 1561 1564 1575 1578 1570 1557 1535 1525 1528 1528 1529 1530 1527 1526 1525 1525 1525 1524 1524 1523 1523
1415 1418 1421 1424 1427 1429 1432 1436 1439 1443 1447 1449 1453 1456 1458 1469 1475 1474 1472 1462 1463 1474 1474 1475 1477 1477 1479 1480 1484 1490 1492 1495 1496 1496 1499 1501 1504 1504 1504 1505 1507 1515 1523 1523 1524 1528 1528 1528 1531 1531 1532 1532 1531 1538 1547 1547 1545 1543 1541 1543 1549 1559 1564 1562 1565 1569 1566 1563 1569 1578 1576 1568 1555 1535 1525 1526 1525 1526 1529 1526 1526 1525 1525 1525 1525 1524 1524 1524
1415 1418 1421 1424 1427 1430 1433 1437 1439 1443 1446 1448 1452 1454 1458 1471 1472 1462 1462 1461 1460 1465 1466 1469 1473 1474 1476 1478 1484 1488 1490 1493 1495 1496 1498 1500 1503 1504 1503 1504 1503 1507 1514 1520 1525 1527 1528 1531 1531 1531 1532 1530 1527 1532 1542 1543 1543 1541 1540 1541 1545 1559 1567 1567 1574 1579 1569 1564 1573 1581 1573 1560 1548 1533 1524 1523 1522 1524 1526 1525 1525 1525 1525 1525 1525 1525 1524 1525
1415 1417 1421 1424 1427 1431 1434 1437 1440 1442 1445 1448 1450 1453 1460 1467 1460 1452 1458 1461 1459 1463 1465 1467 1472 1476 1476 1477 1481 1482 1486 1493 1495 1495 1499 1500 1504 1505 1503 1504 1504 1503 1508 1519 1523 1523 1526 1528 1527 1527 1527 1527 1527 1528 1530 1533 1538 1541 1540 1539 1540 1546 1551 1556 1563 1561 1557 1564 1574 1577 1564 1545 1533 1525 1521 1521 1521 1523 1523 1523 1524 1524 1525 1526 1525 1526 1525 1525
1415 1417 1420 1424 1427 1430 1433 1436 1439 1441 1445 1448 1449 1454 1458 1456 1449 1448 1453 1456 1460 1464 1466 1467 1471 1477 1480 1480 1482 1480 1481 1490 1495 1496 1499 1500 1500 1501 1499 1499 1502 1502 1504 1514 1520 1521 1523 1523 1524 1527 1526 1525 1527 1527 1527 1529 1535 1543 1544 1541 1540 1537 1540 1558 1572 1566 1564 1567 1567 1567 1555 1537 1527 1520 1519 1522 1520 1521 1522 1522 1523 1523 1525 1526 1525 1526 1526 1526
1415 1417 1420 1423 1426 1429 1432 1435 1438 1441 1444 1447 1452 1454 1448 1442 1442 1444 1445 1449 1455 1460 1465 1471 1473 1476 1482 1483 1484 1482 1479 1484 1493 1496 1497 1499 1497 1496 1495 1493 1496 1498 1496 1503 1513 1519 1520 1523 1527 1528 1527 1527 1527 1527 1528 1527 1531 1540 1543 1539 1541 1540 1540 1557 1576 1582 1577 1562 1554 1558 1547 1534 1530 1519 1515 1520 1518 1518 1521 1520 1522 1523 1524 1526 1526 1526 1527 1527
1414 1416 1419 1422 1425 1429 1431 1434 1437 1440 1443 1446 1449 1447 1439 1437 1440 1442 1442 1446 1451 1453 1459 1468 1472 1473 1477 1481 1482 1481 1479 1483 1491 1493 1494 1498 1495 1491 1492 1491 1491 1493 1491 1494 1504 1509 1513 1522 1529 1528 1526 1529 1528 1527 1529 1528 1528 1535 1538 1536 1539 1544 1543 1544 1555 1569 1574 1560 1551 1555 1546 1535 1534 1523 1514 1517 1516 1516 1519 1519 1520 1523 1524 1525 1526 1526 1527 1528
1413 1416 1419 1422 1425 1428 1430 1434 1437 1439 1443 1446 1444 1439 1438 1439 1441 1441 1442 1444 1447 1450 1453 1460 1466 1468 1471 1475 1478 1479 1477 1480 1488 1490 1491 1495 1489 1482 1486 1488 1488 1491 1491 1491 1497 1501 1506 1516 1529 1531 1528 1529 1529 1527 1529 1531 1531 1531 1532 1533 1534 1538 1541 1543 1547 1552 1560 1559 1550 1552 1555 1547 1537 1525 1514 1513 1514 1513 1516 1519 1520 1521 1523 1524 1525 1526 1527 1528
1413 1417 1420 1422 1425 1428 1430 1434 1437 1440 1444 1443 1439 1437 1439 1439 1441 1442 1442 1442 1444 1448 1451 1454 1459 1465 1468 1469 1471 1476 1476 1477 1484 1486 1485 1489 1485 1478 1479 1482 1484 1489 1491 1490 1494 1499 1503 1510 1523 1532 1530 1529 1530 1527 1526 1530 1533 1533 1533 1535 1535 1535 1536 1540 1544 1542 1543 1553 1551 1547 1549 1539 1528 1523 1513 1506 1509 1511 1514 1518 1519 1520 1521 1521 1523 1525 1526 1528
1412 1415 1418 1420 1424 1427 1430 1434 1438 1440 1441 1437 1434 1436 1439 1438 1440 1442 1441 1442 1443 1445 1448 1451 1454 1460 1465 1468 1469 1473 1475 1476 1480 1481 1479 1482 1482 1478 1478 1478 1481 1488 1491 1492 1494 1499 1504 1506 1516 1530 1533 1530 1528 1525 1523 1523 1528 1531 1532 1534 1535 1538 1540 1538 1543 1545 1539 1543 1548 1545 1538 1524 1516 1518 1511 1505 1509 1513 1514 1516 1517 1518 1519 1520 1523 1524 1526 1527
1410 1413 1416 1419 1422 1425 1428 1433 1436 1437 1436 1435 1434 1436 1438 1437 1439 1442 1442 1442 1443 1443 1445 1447 1451 1455 1459 1465 1467 1469 1474 1477 1478 1479 1478 1478 1477 1475 1475 1474 1477 1483 1489 1494 1494 1496 1501 1505 1515 1529 1532 1527 1524 1524 1525 1523 1523 1524 1524 1526 1527 1530 1536 1535 1539 1548 1545 1541 1546 1546 1536 1520 1511 1513 1512 1509 1512 1514 1514 1514 1515 1517 1518 1519 1522 1523 1525 1526
1407 1410 1414 1416 1419 1422 1425 1430 1433 1433 1434 1435 1434 1434 1436 1437 1438 1441 1441 1442 1442 1444 1445 1446 1449 1452 1455 1459 1462 1465 1470 1474 1477 1477 1474 1474 1472 1470 1472 1473 1475 1479 1483 1490 1492 1492 1498 1506 1517 1527 1527 1525 1526 1527 1529 1527 1525 1524 1522 1523 1524 1523 1525 1525 1529 1539 1547 1550 1553 1552 1541 1519 1509 1513 1514 1511 1512 1512 1513 1514 1514 1515 1517 1518 1520 1521 1523 1524
1404 1408 1411 1414 1417 1419 1423 1428 1431 1432 1433 1433 1433 1434 1436 1436 1438 1440 1441 1441 1442 1443 1444 1445 1448 1450 1452 1455 1459 1462 1465 1468 1473 1472 1469 1470 1470 1469 1471 1472 1474 1478 1481 1485 1489 1492 1495 1501 1512 1524 1526 1526 1526 1526 1527 1527 1526 1524 1522 1523 1524 1522 1520 1521 1526 1531 1539 1544 1545 1549 1542 1517 1507 1514 1513 1510 1513 1511 1511 1513 1513 1514 1516 1517 1519 1520 1522 1523
1405 1408 1411 1413 1416 1417 1420 1423 1424 1428 1432 1433 1433 1435 1436 1436 1437 1438 1439 1440 1441 1442 1443 1444 1446 1448 1450 1453 1455 1458 1460 1464 1468 1469 1468 1469 1469 1469 1471 1471 1472 1476 1477 1478 1481 1485 1490 1495 1505 1520 1527 1528 1528 1528 1527 1526 1525 1521 1519 1521 1522 1522 1524 1528 1531 1531 1532 1533 1533 1535 1531 1513 1507 1513 1511 1509 1512 1510 1511 1513 1512 1514 1515 1516 1518 1519 1520 1521
1406 1409 1411 1413 1415 1417 1419 1419 1419 1424 1430 1432 1433 1435 1436 1437 1437 1437 1438 1439 1440 1441 1441 1443 1446 1446 1449 1452 1454 1457 1458 1458 1461 1465 1468 1469 1469 1470 1471 1471 1472 1472 1473 1474 1475 1479 1487 1491 1495 1505 1515 1519 1520 1518 1512 1511 1518 1519 1517 1519 1519 1520 1522 1522 1526 1530 1528 1531 1533 1525 1516 1511 1510 1511 1509 1509 1511 1510 1511 1512 1512 1514 1514 1515 1516 1517 1519 1520
1406 1409 1412 1414 1416 1417 1419 1420 1420 1423 1427 1429 1432 1435 1435 1435 1437 1437 1438 1439 1440 1440 1440 1443 1445 1446 1449 1451 1453 1456 1457 1458 1460 1462 1464 1467 1469 1471 1471 1471 1473 1473 1474 1475 1475 1479 1486 1489 1489 1490 1494 1495 1493 1494 1493 1496 1506 1511 1510 1513 1515 1518 1519 1517 1524 1526 1522 1530 1535 1520 1510 1511 1510 1509 1509 1508 1509 1509 1510 1511 1511 1512 1513 1514 1515 1516 1518 1519
1407 1409 1411 1413 1416 1418 1420 1421 1421 1422 1425 1426 1430 1432 1433 1434 1436 1438 1438 1438 1439 1439 1440 1443 1443 1444 1447 1449 1451 1454 1455 1458 1461 1460 1462 1466 1469 1472 1472 1471 1473 1473 1474 1475 1475 1479 1484 1486 1487 1485 1484 1484 1483 1487 1490 1492 1495 1499 1503 1509 1513 1516 1518 1517 1517 1513 1514 1526 1527 1512 1510 1512 1508 1507 1508 1507 1507 1509 1509 1508 1508 1509 1511 1513 1514 1515 1516 1517
1408 1410 1411 1411 1414 1416 1418 1420 1421 1423 1425 1426 1427 1430 1432 1434 1435 1435 1437 1438 1439 1438 1439 1442 1442 1442 1443 1444 1447 1451 1455 1459 1461 1460 1462 1466 1468 1471 1472 1473 1474 1473 1474 1475 1475 1477 1481 1483 1484 1485 1485 1485 1486 1490 1491 1490 1491 1495 1500 1506 1510 1514 1516 1514 1510 1506 1510 1515 1507 1500 1507 1509 1503 1504 1504 1503 1504 1504 1503 1504 1505 1507 1510 1511 1512 1514 1515 1516
1409 1411 1412 1412 1414 1416 1417 1418 1421 1424 1425 1426 1427 1429 1430 1432 1432 1433 1435 1437 1439 1439 1438 1439 1440 1441 1443 1443 1443 1447 1452 1454 1456 1458 1461 1463 1466 1468 1470 1471 1473 1473 1474 1475 1475 1476 1478 1479 1482 1484 1485 1485 1488 1492 1492 1490 1492 1496 1500 1502 1506 1510 1510 1507 1505 1503 1504 1503 1496 1499 1507 1502 1498 1500 1499 1498 1501 1501 1502 1505 1505 1506 1508 1508 1510 1512 1512 1514
1410 1410 1412 1414 1416 1417 1418 1419 1422 1425 1426 1427 1428 1427 1427 1428 1430 1432 1433 1434 1436 1438 1438 1438 1440 1442 1444 1444 1443 1444 1446 1446 1447 1451 1455 1459 1463 1464 1465 1465 1467 1473 1474 1474 1476 1476 1476 1479 1482 1484 1485 1486 1488 1491 1493 1494 1493 1494 1499 1504 1506 1507 1507 1505 1501 1499 1503 1503 1499 1505 1510 1500 1495 1498 1498 1498 1500 1501 1503 1504 1504 1505 1506 1507 1508 1509 1510 1512
1410 1410 1411 1413 1416 1418 1419 1420 1422 1424 1426 1427 1427 1426 1426 1426 1427 1429 1432 1432 1432 1434 1436 1437 1440 1443 1444 1445 1444 1444 1446 1445 1444 1445 1447 1450 1453 1455 1457 1457 1460 1468 1472 1472 1474 1474 1476 1481 1484 1485 1485 1485 1488 1493 1496 1498 1497 1497 1501 1504 1504 1503 1501 1498 1494 1493 1499 1501 1502 1510 1509 1495 1491 1496 1497 1497 1498 1500 1501 1501 1502 1503 1504 1505 1506 1506 1508 1509
1410 1411 1411 1413 1416 1418 1419 1420 1422 1423 1423 1424 1425 1425 1425 1425 1425 1427 1430 1432 1431 1431 1433 1435 1437 1440 1443 1445 1444 1444 1445 1445 1445 1445 1447 1448 1449 1450 1453 1454 1456 1460 1465 1470 1472 1473 1475 1477 1480 1484 1483 1485 1496 1500 1496 1497 1501 1499 1493 1490 1492 1494 1491 1491 1493 1493 1494 1496 1500 1503 1495 1484 1487 1493 1494 1495 1497 1497 1497 1497 1498 1499 1500 1502 1503 1504 1506 1507